FDX250 KEWR-KIAH

Flight info

Callsign FDX250
Flight time N/A
Altitude 30000
Route KEWR/04L EWR5 PARKE J6 HVQ Q68 LITTR Q33 SWEUP GESNR2 KIAH/WDLNSI08R
Aircraft B77L/H-SDE2E3FGHIJ5LORVWXY/LB1D1

Departure

Time 2026-04-26 04:56
Airport Newark Liberty International Airport (KEWR)

Arrival

Time N/A
Airport George Bush Intercontinental Airport (KIAH)
Time Latitude Longitude Altitude Speed Heading
2026-04-26 04:38 40.67922 -74.17982 18 ft 7 kts 205°
2026-04-26 04:38 40.67890 -74.17976 18 ft 4 kts 115°
2026-04-26 04:38 40.67882 -74.17946 18 ft 0 kts 115°
2026-04-26 04:48 40.67880 -74.17941 18 ft 1 kts 115°
2026-04-26 04:48 40.67875 -74.17931 18 ft 1 kts 127°
2026-04-26 04:49 40.67867 -74.17923 18 ft 1 kts 155°
2026-04-26 04:49 40.67845 -74.17921 18 ft 6 kts 189°
2026-04-26 04:49 40.67789 -74.17950 18 ft 8 kts 204°
2026-04-26 04:49 40.67734 -74.17982 18 ft 8 kts 204°
2026-04-26 04:50 40.67680 -74.18014 18 ft 8 kts 204°
2026-04-26 04:50 40.67642 -74.18035 18 ft 4 kts 197°
2026-04-26 04:50 40.67627 -74.18038 18 ft 0 kts 181°
2026-04-26 04:53 40.67614 -74.18036 18 ft 5 kts 168°
2026-04-26 04:53 40.67582 -74.18005 18 ft 5 kts 126°
2026-04-26 04:54 40.67566 -74.17960 18 ft 4 kts 96°
2026-04-26 04:54 40.67579 -74.17928 18 ft 3 kts 39°
2026-04-26 04:54 40.67602 -74.17911 18 ft 3 kts 27°
2026-04-26 04:54 40.67624 -74.17896 18 ft 3 kts 27°
2026-04-26 04:55 40.67643 -74.17884 18 ft 0 kts 26°
2026-04-26 04:55 40.67709 -74.17841 18 ft 38 kts 24°
2026-04-26 04:55 40.68243 -74.17500 19 ft 132 kts 26°
2026-04-26 04:55 40.69322 -74.16792 175 ft 202 kts 28°
2026-04-26 04:56 40.70598 -74.15882 1262 ft 219 kts 36°
2026-04-26 04:56 40.71711 -74.14713 2522 ft 208 kts 44°
2026-04-26 04:56 40.72830 -74.13376 3110 ft 227 kts 45°
2026-04-26 04:56 40.74013 -74.11936 3755 ft 243 kts 45°
2026-04-26 04:57 40.75297 -74.10381 4608 ft 252 kts 42°
2026-04-26 04:57 40.76821 -74.09270 5459 ft 262 kts 18°
2026-04-26 04:57 40.78686 -74.09121 6132 ft 276 kts 348°
2026-04-26 04:57 40.80431 -74.10184 6916 ft 280 kts 317°
2026-04-26 04:58 40.81561 -74.12217 7798 ft 275 kts 287°
2026-04-26 04:58 40.81945 -74.14593 8849 ft 268 kts 276°
2026-04-26 04:58 40.82173 -74.16981 9831 ft 264 kts 276°
2026-04-26 04:58 40.82402 -74.19403 10572 ft 271 kts 276°
2026-04-26 04:59 40.82647 -74.21950 11018 ft 288 kts 274°
2026-04-26 04:59 40.82504 -74.24657 11411 ft 306 kts 259°
2026-04-26 04:59 40.82054 -74.27489 11822 ft 325 kts 259°
2026-04-26 04:59 40.81547 -74.30526 12255 ft 343 kts 258°
2026-04-26 05:00 40.81025 -74.33635 12799 ft 356 kts 258°
2026-04-26 05:00 40.80478 -74.36889 13349 ft 370 kts 258°
2026-04-26 05:00 40.79915 -74.40227 14081 ft 378 kts 258°
2026-04-26 05:00 40.79339 -74.43637 14941 ft 382 kts 258°
2026-04-26 05:01 40.78766 -74.47021 15826 ft 384 kts 258°
2026-04-26 05:01 40.78181 -74.50469 16669 ft 387 kts 258°
2026-04-26 05:01 40.77588 -74.53958 17397 ft 393 kts 258°
2026-04-26 05:01 40.76990 -74.57473 18123 ft 398 kts 258°
2026-04-26 05:02 40.76376 -74.61073 18892 ft 402 kts 258°
2026-04-26 05:02 40.75765 -74.64642 19706 ft 403 kts 258°
2026-04-26 05:02 40.75151 -74.68227 20477 ft 406 kts 257°
2026-04-26 05:02 40.74524 -74.71879 21226 ft 409 kts 257°
2026-04-26 05:03 40.73895 -74.75533 21921 ft 412 kts 257°
2026-04-26 05:03 40.73258 -74.79230 22631 ft 415 kts 257°
2026-04-26 05:03 40.72623 -74.82906 23310 ft 418 kts 257°
2026-04-26 05:03 40.71977 -74.86641 23977 ft 420 kts 257°
2026-04-26 05:04 40.71320 -74.90432 24615 ft 424 kts 257°
2026-04-26 05:04 40.70661 -74.94220 25301 ft 426 kts 256°
2026-04-26 05:04 40.70007 -74.97977 25990 ft 428 kts 257°
2026-04-26 05:04 40.69334 -75.01837 26661 ft 431 kts 256°
2026-04-26 05:05 40.68592 -75.05637 27332 ft 432 kts 252°
2026-04-26 05:05 40.67453 -75.09312 28014 ft 434 kts 244°
2026-04-26 05:05 40.65971 -75.12781 28633 ft 438 kts 240°
2026-04-26 05:05 40.64407 -75.16228 29293 ft 440 kts 240°
2026-04-26 05:06 40.62837 -75.19678 30066 ft 439 kts 240°
2026-04-26 05:06 40.61288 -75.23071 31005 ft 435 kts 240°
2026-04-26 05:06 40.59740 -75.26460 31861 ft 427 kts 240°
2026-04-26 05:06 40.58218 -75.29787 32072 ft 427 kts 240°
2026-04-26 05:07 40.55170 -75.36442 32073 ft 422 kts 239°
2026-04-26 05:07 40.52118 -75.43089 32067 ft 421 kts 239°
2026-04-26 05:08 40.49084 -75.49681 32068 ft 423 kts 239°
2026-04-26 05:08 40.46020 -75.56323 32064 ft 422 kts 240°
2026-04-26 05:09 40.42999 -75.62859 32064 ft 421 kts 239°
2026-04-26 05:09 40.39958 -75.69422 32069 ft 421 kts 239°
2026-04-26 05:10 40.36913 -75.75977 32068 ft 421 kts 239°
2026-04-26 05:10 40.33855 -75.82547 32069 ft 420 kts 238°
2026-04-26 05:11 40.30791 -75.89120 32060 ft 421 kts 238°
2026-04-26 05:11 40.27721 -75.95690 32053 ft 422 kts 239°
2026-04-26 05:12 40.24661 -76.02226 32042 ft 421 kts 238°
2026-04-26 05:12 40.21592 -76.08766 32038 ft 423 kts 239°
2026-04-26 05:13 40.18515 -76.15311 32046 ft 423 kts 238°
2026-04-26 05:13 40.15433 -76.21853 32045 ft 423 kts 238°
2026-04-26 05:14 40.12345 -76.28394 32049 ft 423 kts 239°
2026-04-26 05:14 40.09306 -76.34947 32045 ft 424 kts 239°
2026-04-26 05:15 40.06280 -76.41518 32048 ft 422 kts 239°
2026-04-26 05:15 40.03241 -76.48100 32043 ft 425 kts 239°
2026-04-26 05:16 40.00207 -76.54652 32041 ft 424 kts 239°
2026-04-26 05:16 39.97161 -76.61215 32034 ft 423 kts 239°
2026-04-26 05:17 39.94114 -76.67763 32039 ft 424 kts 239°
2026-04-26 05:17 39.91045 -76.74348 32041 ft 425 kts 239°
2026-04-26 05:18 39.87976 -76.80917 32053 ft 424 kts 239°
2026-04-26 05:18 39.84897 -76.87492 32039 ft 426 kts 239°
2026-04-26 05:19 39.81807 -76.94079 32041 ft 425 kts 239°
2026-04-26 05:19 39.78738 -77.00606 32028 ft 427 kts 239°
2026-04-26 05:20 39.75619 -77.07226 32030 ft 426 kts 239°
2026-04-26 05:20 39.72528 -77.13773 32016 ft 430 kts 239°
2026-04-26 05:21 39.69407 -77.20370 32011 ft 427 kts 239°
2026-04-26 05:21 39.66288 -77.26946 32007 ft 430 kts 239°
2026-04-26 05:22 39.63158 -77.33534 31999 ft 429 kts 239°
2026-04-26 05:22 39.60027 -77.40110 31994 ft 429 kts 239°
2026-04-26 05:23 39.56885 -77.46695 31988 ft 430 kts 239°
2026-04-26 05:23 39.53756 -77.53239 31981 ft 428 kts 239°
2026-04-26 05:24 39.50593 -77.59840 31983 ft 430 kts 239°
2026-04-26 05:24 39.47448 -77.66389 31991 ft 429 kts 238°
2026-04-26 05:25 39.44304 -77.72925 31995 ft 430 kts 238°
2026-04-26 05:25 39.41142 -77.79483 31995 ft 429 kts 238°
2026-04-26 05:26 39.37971 -77.86064 31994 ft 431 kts 240°
2026-04-26 05:26 39.35250 -77.92942 32001 ft 432 kts 243°
2026-04-26 05:27 39.32544 -77.99882 32006 ft 430 kts 243°
2026-04-26 05:27 39.29837 -78.06749 32013 ft 431 kts 243°
2026-04-26 05:28 39.27085 -78.13680 31995 ft 432 kts 243°
2026-04-26 05:28 39.24338 -78.20570 31994 ft 431 kts 243°
2026-04-26 05:29 39.21597 -78.27422 31982 ft 434 kts 243°
2026-04-26 05:29 39.18821 -78.34340 31978 ft 431 kts 243°
2026-04-26 05:30 39.16037 -78.41262 31970 ft 434 kts 243°
2026-04-26 05:30 39.13282 -78.48095 31964 ft 435 kts 243°
2026-04-26 05:31 39.10478 -78.55034 31955 ft 435 kts 243°
2026-04-26 05:31 39.07684 -78.61931 31945 ft 435 kts 243°
2026-04-26 05:32 39.04859 -78.68890 31953 ft 438 kts 242°
2026-04-26 05:32 39.02047 -78.75801 31950 ft 437 kts 242°
2026-04-26 05:33 38.99218 -78.82739 31950 ft 438 kts 243°
2026-04-26 05:33 38.96394 -78.89648 31947 ft 439 kts 243°
2026-04-26 05:34 38.93550 -78.96589 31945 ft 441 kts 243°
2026-04-26 05:34 38.90698 -79.03532 31945 ft 438 kts 243°
2026-04-26 05:35 38.87845 -79.10465 31947 ft 441 kts 243°
2026-04-26 05:35 38.84996 -79.17419 31943 ft 439 kts 245°
2026-04-26 05:36 38.83094 -79.24876 31959 ft 441 kts 256°
2026-04-26 05:36 38.81730 -79.32515 31962 ft 442 kts 257°
2026-04-26 05:37 38.80357 -79.40177 31961 ft 441 kts 257°
2026-04-26 05:37 38.78976 -79.47832 31966 ft 441 kts 257°
2026-04-26 05:38 38.77586 -79.55498 31965 ft 440 kts 257°
2026-04-26 05:38 38.76207 -79.63068 31960 ft 441 kts 257°
2026-04-26 05:39 38.74800 -79.70766 31960 ft 442 kts 256°
2026-04-26 05:39 38.73407 -79.78349 31965 ft 442 kts 256°
2026-04-26 05:40 38.71995 -79.86009 31964 ft 440 kts 256°
2026-04-26 05:40 38.70581 -79.93651 31960 ft 442 kts 256°
2026-04-26 05:41 38.69158 -80.01305 31952 ft 441 kts 256°
2026-04-26 05:41 38.67738 -80.08916 31957 ft 441 kts 256°
2026-04-26 05:42 38.66306 -80.16561 31956 ft 442 kts 256°
2026-04-26 05:42 38.64869 -80.24206 31956 ft 443 kts 256°
2026-04-26 05:43 38.63428 -80.31841 31955 ft 442 kts 256°
2026-04-26 05:43 38.61979 -80.39484 31960 ft 444 kts 257°
2026-04-26 05:44 38.60527 -80.47115 31955 ft 443 kts 256°
2026-04-26 05:44 38.59070 -80.54747 31958 ft 443 kts 256°
2026-04-26 05:45 38.57604 -80.62395 31960 ft 442 kts 257°
2026-04-26 05:45 38.56138 -80.70015 31973 ft 443 kts 256°
2026-04-26 05:46 38.54654 -80.77696 31975 ft 444 kts 256°
2026-04-26 05:46 38.53176 -80.85319 31973 ft 442 kts 256°
2026-04-26 05:47 38.51682 -80.92997 31971 ft 445 kts 256°
2026-04-26 05:47 38.50196 -81.00601 31975 ft 445 kts 256°
2026-04-26 05:48 38.48690 -81.08283 31974 ft 444 kts 256°
2026-04-26 05:48 38.47192 -81.15894 31976 ft 445 kts 256°
2026-04-26 05:49 38.44921 -81.27383 31974 ft 447 kts 256°
2026-04-26 05:50 38.43383 -81.35124 31973 ft 447 kts 256°
2026-04-26 05:50 38.41856 -81.42782 31977 ft 448 kts 256°
2026-04-26 05:51 38.40312 -81.50497 31982 ft 448 kts 256°
2026-04-26 05:51 38.38766 -81.58197 31982 ft 449 kts 256°
2026-04-26 05:52 38.37218 -81.65873 31985 ft 447 kts 256°
2026-04-26 05:52 38.35655 -81.73600 31986 ft 449 kts 256°
2026-04-26 05:53 38.33796 -81.81189 31982 ft 450 kts 251°
2026-04-26 05:53 38.31701 -81.88689 31976 ft 450 kts 251°
2026-04-26 05:54 38.29586 -81.96234 31979 ft 450 kts 251°
2026-04-26 05:54 38.27482 -82.03722 31978 ft 451 kts 251°
2026-04-26 05:55 38.25359 -82.11253 31970 ft 452 kts 251°
2026-04-26 05:55 38.23228 -82.18792 31976 ft 454 kts 251°
2026-04-26 05:56 38.21092 -82.26326 31974 ft 453 kts 251°
2026-04-26 05:56 38.19069 -82.33444 31975 ft 453 kts 251°
2026-04-26 05:57 38.16904 -82.41036 31974 ft 454 kts 251°
2026-04-26 05:57 38.14749 -82.48573 31973 ft 456 kts 251°
2026-04-26 05:58 38.12577 -82.56147 31975 ft 455 kts 251°
2026-04-26 05:58 38.10410 -82.63686 31979 ft 456 kts 251°
2026-04-26 05:59 38.08224 -82.71266 31992 ft 456 kts 250°
2026-04-26 05:59 38.06040 -82.78819 31989 ft 457 kts 250°
2026-04-26 06:00 38.03822 -82.86466 31983 ft 459 kts 250°
2026-04-26 06:00 38.01616 -82.94053 31983 ft 462 kts 250°
2026-04-26 06:01 37.99386 -83.01701 31981 ft 462 kts 250°
2026-04-26 06:01 37.97144 -83.09363 31980 ft 461 kts 250°
2026-04-26 06:02 37.94915 -83.16964 31980 ft 462 kts 251°
2026-04-26 06:02 37.92670 -83.24595 31976 ft 462 kts 251°
2026-04-26 06:03 37.90434 -83.32179 31976 ft 461 kts 251°
2026-04-26 06:03 37.88185 -83.39783 31975 ft 460 kts 251°
2026-04-26 06:04 37.85926 -83.47396 31975 ft 460 kts 251°
2026-04-26 06:04 37.83677 -83.54961 31973 ft 461 kts 251°
2026-04-26 06:05 37.81421 -83.62526 31977 ft 460 kts 251°
2026-04-26 06:05 37.79156 -83.70097 31980 ft 461 kts 250°
2026-04-26 06:06 37.76873 -83.77713 31979 ft 462 kts 250°
2026-04-26 06:06 37.74592 -83.85297 31972 ft 464 kts 250°
2026-04-26 06:07 37.72292 -83.92926 31962 ft 463 kts 250°
2026-04-26 06:07 37.70002 -84.00497 31952 ft 464 kts 250°
2026-04-26 06:08 37.67702 -84.08084 31951 ft 462 kts 251°
2026-04-26 06:08 37.65405 -84.15641 31946 ft 463 kts 251°
2026-04-26 06:09 37.63089 -84.23218 31953 ft 462 kts 251°
2026-04-26 06:09 37.60789 -84.30718 31958 ft 461 kts 251°
2026-04-26 06:10 37.58466 -84.38274 31960 ft 460 kts 251°
2026-04-26 06:10 37.56155 -84.45770 31946 ft 461 kts 251°
2026-04-26 06:11 37.53832 -84.53285 31955 ft 459 kts 251°
2026-04-26 06:11 37.51505 -84.60794 31951 ft 461 kts 251°
2026-04-26 06:12 37.49174 -84.68294 31955 ft 458 kts 250°
2026-04-26 06:12 37.46847 -84.75787 31956 ft 460 kts 251°
2026-04-26 06:13 37.44537 -84.83246 31955 ft 460 kts 251°
2026-04-26 06:13 37.42217 -84.90715 31949 ft 458 kts 251°
2026-04-26 06:14 37.39890 -84.98189 31950 ft 460 kts 251°
2026-04-26 06:14 37.37555 -85.05651 31945 ft 458 kts 251°
2026-04-26 06:15 37.35215 -85.13086 31950 ft 457 kts 251°
2026-04-26 06:15 37.32879 -85.20486 31954 ft 457 kts 251°
2026-04-26 06:16 37.30535 -85.27892 31959 ft 455 kts 251°
2026-04-26 06:16 37.28195 -85.35272 31957 ft 456 kts 251°
2026-04-26 06:17 37.25842 -85.42669 31951 ft 454 kts 251°
2026-04-26 06:17 37.23504 -85.50005 31949 ft 456 kts 251°
2026-04-26 06:18 37.21144 -85.57385 31936 ft 454 kts 251°
2026-04-26 06:18 37.18781 -85.64761 31936 ft 455 kts 252°
2026-04-26 06:19 37.16437 -85.72056 31938 ft 454 kts 251°
2026-04-26 06:19 37.14071 -85.79401 31946 ft 454 kts 251°
2026-04-26 06:20 37.11712 -85.86705 31953 ft 452 kts 252°
2026-04-26 06:20 37.09349 -85.94003 31947 ft 451 kts 252°
2026-04-26 06:21 37.06995 -86.01260 31953 ft 451 kts 252°
2026-04-26 06:21 37.04644 -86.08483 31950 ft 449 kts 252°
2026-04-26 06:22 37.02276 -86.15745 31951 ft 448 kts 252°
2026-04-26 06:22 36.99931 -86.22918 31942 ft 447 kts 252°
2026-04-26 06:23 36.97564 -86.30138 31926 ft 447 kts 252°
2026-04-26 06:23 36.95219 -86.37275 31940 ft 447 kts 252°
2026-04-26 06:24 36.92854 -86.44456 31939 ft 447 kts 252°
2026-04-26 06:24 36.90345 -86.51538 31938 ft 448 kts 251°
2026-04-26 06:25 36.87803 -86.58568 31924 ft 443 kts 251°
2026-04-26 06:25 36.85248 -86.65643 31922 ft 446 kts 251°
2026-04-26 06:26 36.82725 -86.72623 31925 ft 446 kts 251°
2026-04-26 06:26 36.80179 -86.79652 31925 ft 441 kts 251°
2026-04-26 06:27 36.77649 -86.86632 31922 ft 444 kts 251°
2026-04-26 06:27 36.75116 -86.93594 31931 ft 440 kts 251°
2026-04-26 06:28 36.72577 -87.00568 31919 ft 440 kts 251°
2026-04-26 06:28 36.70035 -87.07534 31923 ft 442 kts 251°
2026-04-26 06:29 36.67515 -87.14417 31932 ft 438 kts 252°
2026-04-26 06:29 36.64967 -87.21372 31923 ft 441 kts 252°
2026-04-26 06:30 36.62452 -87.28211 31931 ft 436 kts 252°
2026-04-26 06:30 36.59913 -87.35109 31933 ft 438 kts 252°
2026-04-26 06:31 36.57376 -87.41988 31941 ft 438 kts 252°
2026-04-26 06:31 36.54855 -87.48805 31935 ft 434 kts 252°
2026-04-26 06:32 36.52330 -87.55623 31934 ft 434 kts 252°
2026-04-26 06:32 36.49790 -87.62466 31929 ft 436 kts 252°
2026-04-26 06:33 36.47255 -87.69279 31936 ft 438 kts 251°
2026-04-26 06:33 36.44701 -87.76123 31936 ft 433 kts 252°
2026-04-26 06:34 36.42180 -87.82873 31932 ft 435 kts 252°
2026-04-26 06:34 36.39629 -87.89682 31928 ft 435 kts 252°
2026-04-26 06:35 36.37075 -87.96486 31933 ft 434 kts 252°
2026-04-26 06:35 36.34517 -88.03288 31932 ft 434 kts 252°
2026-04-26 06:36 36.31973 -88.10033 31930 ft 429 kts 252°
2026-04-26 06:36 36.29436 -88.16753 31932 ft 435 kts 252°
2026-04-26 06:37 36.26875 -88.23518 31940 ft 434 kts 251°
2026-04-26 06:37 36.24318 -88.30256 31934 ft 431 kts 252°
2026-04-26 06:38 36.21744 -88.37029 31932 ft 434 kts 251°
2026-04-26 06:38 36.19185 -88.43742 31932 ft 430 kts 252°
2026-04-26 06:39 36.16624 -88.50452 31930 ft 434 kts 252°
2026-04-26 06:39 36.14056 -88.57164 31923 ft 434 kts 251°
2026-04-26 06:40 36.11475 -88.63887 31918 ft 430 kts 252°
2026-04-26 06:40 36.08884 -88.70628 31925 ft 434 kts 251°
2026-04-26 06:41 36.06319 -88.77282 31920 ft 430 kts 251°
2026-04-26 06:41 36.03740 -88.83962 31917 ft 431 kts 251°
2026-04-26 06:42 36.01136 -88.90694 31911 ft 432 kts 251°
2026-04-26 06:42 35.98563 -88.97329 31913 ft 432 kts 251°
2026-04-26 06:43 35.95975 -89.03987 31910 ft 429 kts 251°
2026-04-26 06:43 35.93396 -89.10613 31909 ft 432 kts 251°
2026-04-26 06:44 35.90785 -89.17309 31910 ft 431 kts 251°
2026-04-26 06:44 35.88193 -89.23936 31906 ft 431 kts 251°
2026-04-26 06:45 35.85603 -89.30548 31909 ft 431 kts 251°
2026-04-26 06:45 35.82989 -89.37204 31908 ft 428 kts 251°
2026-04-26 06:46 35.80389 -89.43814 31909 ft 429 kts 251°
2026-04-26 06:46 35.77789 -89.50409 31903 ft 428 kts 251°
2026-04-26 06:47 35.75181 -89.57017 31900 ft 430 kts 251°
2026-04-26 06:47 35.72575 -89.63600 31902 ft 431 kts 251°
2026-04-26 06:48 35.69960 -89.70190 31915 ft 429 kts 250°
2026-04-26 06:48 35.67332 -89.76806 31916 ft 429 kts 251°
2026-04-26 06:49 35.64732 -89.83331 31912 ft 426 kts 250°
2026-04-26 06:49 35.62114 -89.89896 31916 ft 426 kts 250°
2026-04-26 06:50 35.59515 -89.96396 31920 ft 428 kts 250°
2026-04-26 06:50 35.56879 -90.02977 31922 ft 430 kts 250°
2026-04-26 06:51 35.54248 -90.09529 31924 ft 425 kts 250°
2026-04-26 06:51 35.50303 -90.19334 31917 ft 426 kts 250°
2026-04-26 06:52 35.47678 -90.25838 31917 ft 426 kts 250°
2026-04-26 06:52 35.45053 -90.32334 31910 ft 425 kts 250°
2026-04-26 06:53 35.42429 -90.38811 31905 ft 425 kts 250°